Location: The Saddle
(36.8333°N, 80.3417°W)
Time: 13:34:17
(UTC-05:00)

Vanguard 1 - All Passes

Search period start: 22 February 2024 00:00
Search period end: 03 March 2024 00:00
Orbit: 653 x 3826 km, 34.3° (Epoch: 21 February)

Date Brightness Start Highest point End Pass type
(mag) Time Alt. Az. Time Alt. Az. Time Alt. Az.
22 Feb - 00:30:51 10° W 00:53:09 77° SSW 01:14:25 10° ESE visible
22 Feb - 02:57:15 10° WNW 03:18:52 48° SW 03:35:19 10° SSE visible
22 Feb - 05:30:51 10° W 05:40:20 15° WSW 05:48:15 10° SSW visible
22 Feb - 17:49:28 10° S 17:58:47 27° SE 18:12:45 10° E daylight
22 Feb - 20:06:23 10° SW 20:20:22 65° SSE 20:42:42 10° E visible
22 Feb - 22:27:40 10° W 22:46:27 83° S 23:10:15 10° E visible
23 Feb - 00:51:44 10° W 01:14:06 72° SSW 01:34:53 10° ESE visible
23 Feb - 03:18:42 10° WNW 03:39:00 40° SW 03:54:41 10° SSE visible
23 Feb - 18:08:25 10° SSW 18:18:30 35° SE 18:34:42 10° E visible
23 Feb - 20:26:32 10° WSW 20:40:58 72° SSE 21:03:54 10° E visible
23 Feb - 22:48:20 10° W 23:07:35 83° S 23:31:14 10° E visible
24 Feb - 01:12:38 10° W 01:34:55 65° SSW 01:55:09 10° SE visible
24 Feb - 03:40:30 10° W 03:58:59 32° SW 04:13:36 10° S visible
24 Feb - 18:27:47 10° SSW 18:38:24 44° SE 18:56:17 10° ENE visible
24 Feb - 20:46:50 10° WSW 21:01:45 77° SSE 21:25:06 10° E visible
24 Feb - 23:09:02 10° W 23:28:42 81° S 23:52:07 10° ESE visible
25 Feb - 01:33:37 10° WNW 01:55:31 57° SSW 02:15:10 10° SE visible
25 Feb - 04:02:56 10° W 04:18:50 24° SW 04:31:53 10° S visible
25 Feb - 16:33:13 10° SSE 16:38:46 16° SE 16:46:00 10° E daylight
25 Feb - 18:47:27 10° SW 18:58:30 54° SSE 19:17:39 10° ENE visible
25 Feb - 21:07:15 10° WSW 21:22:39 81° S 21:46:17 10° E visible
25 Feb - 23:29:45 10° W 23:49:46 77° SSW 00:12:52 10° ESE visible
26 Feb - 01:54:43 10° WNW 02:15:58 49° SW 02:34:54 10° SSE visible
26 Feb - 04:26:35 10° W 04:38:37 17° SW 04:49:01 10° SSW visible
26 Feb - 16:51:08 10° S 16:58:19 23° SE 17:08:56 10° E daylight
26 Feb - 19:07:23 10° SW 19:18:48 63° SSE 19:38:56 10° E visible
26 Feb - 21:27:45 10° W 21:43:37 83° S 22:07:26 10° E visible
26 Feb - 23:50:29 10° W 00:10:43 71° SSW 00:33:26 10° ESE visible
27 Feb - 02:16:01 10° W 02:36:16 41° SW 02:54:17 10° SSE visible
27 Feb - 04:54:10 10° WSW 04:58:24 11° WSW 05:02:24 10° SW visible
27 Feb - 17:09:58 10° SSW 17:17:58 31° SE 17:30:56 10° E daylight
27 Feb - 19:27:28 10° WSW 19:39:17 70° SSE 20:00:11 10° E visible
27 Feb - 21:48:17 10° W 22:04:39 82° S 22:28:32 10° E visible
28 Feb - 00:11:15 10° W 00:31:33 65° SSW 00:53:46 10° SE visible
28 Feb - 02:37:40 10° W 02:56:26 33° SW 03:13:12 10° S visible
28 Feb - 17:29:17 10° SSW 17:37:48 40° SE 17:52:30 10° E daylight
28 Feb - 19:47:42 10° WSW 19:59:55 76° SSE 20:21:26 10° E visible
28 Feb - 22:08:51 10° W 22:25:40 80° S 22:49:33 10° ESE visible
29 Feb - 00:32:05 10° W 00:52:16 57° SSW 01:13:51 10° SE visible
29 Feb - 02:59:53 10° W 03:16:28 26° SW 03:31:30 10° S visible
29 Feb - 15:36:14 10° SE 15:38:52 11° SE 15:41:54 10° ESE daylight
29 Feb - 17:48:55 10° SW 17:57:49 50° SSE 18:13:52 10° E daylight
29 Feb - 20:08:02 10° WSW 20:20:41 80° S 20:42:41 10° E visible
29 Feb - 22:29:26 10° W 22:46:39 76° SSW 23:10:24 10° ESE visible
01 Mar - 00:53:03 10° W 01:12:49 49° SW 01:33:37 10° SSE visible
01 Mar - 03:23:12 10° W 03:36:28 19° SW 03:48:45 10° SSW visible
01 Mar - 15:53:13 10° S 15:58:24 18° SE 16:05:37 10° E daylight
01 Mar - 18:08:47 10° SW 18:18:01 60° SSE 18:35:07 10° E daylight
01 Mar - 20:28:26 10° W 20:41:31 82° S 21:03:55 10° E visible
01 Mar - 22:50:03 10° W 23:07:35 71° SSW 23:31:04 10° ESE visible
02 Mar - 01:14:13 10° W 01:33:16 41° SW 01:53:00 10° SSE visible
02 Mar - 03:49:21 10° WSW 03:56:27 12° SW 04:03:17 10° SW visible
02 Mar - 16:11:50 10° S 16:18:03 26° SE 16:27:41 10° E daylight
02 Mar - 18:28:50 10° WSW 18:38:23 68° SSE 18:56:20 10° E visible
02 Mar - 20:48:52 10° W 21:02:24 82° S 21:25:06 10° E visible
